Time,TemperatureF,DewpointF,PressureIn,WindDirection,WindDirectionDegrees,WindSpeedMPH,WindSpeedGustMPH,Humidity,HourlyPrecipIn,Conditions,Clouds,dailyrainin,SoftwareType,DateUTC
2013-09-09 00:07:00,66.4,62.0,29.66,North,9,0.0,-999.0,84,-99.99,,,0.00,weatherlink.com 1.10,2013-09-09 06:07:00,
2013-09-09 00:22:00,66.8,62.0,29.66,North,9,0.0,-999.0,83,-99.99,,,0.00,weatherlink.com 1.10,2013-09-09 06:22:00,
2013-09-09 00:37:00,66.4,62.0,29.67,North,9,0.0,-999.0,84,-99.99,,,0.00,weatherlink.com 1.10,2013-09-09 06:37:00,
2013-09-09 00:52:00,66.4,62.0,29.66,North,9,0.0,-999.0,85,-99.99,,,0.01,weatherlink.com 1.10,2013-09-09 06:52:00,
2013-09-09 01:07:00,66.3,62.0,29.67,North,9,0.0,-999.0,85,-99.99,,,0.01,weatherlink.com 1.10,2013-09-09 07:07:00,
2013-09-09 01:22:00,66.1,62.0,29.66,North,9,0.0,-999.0,85,-99.99,,,0.01,weatherlink.com 1.10,2013-09-09 07:22:00,
2013-09-09 01:37:00,66.0,61.0,29.66,North,9,0.0,-999.0,85,-99.99,,,0.01,weatherlink.com 1.10,2013-09-09 07:37:00,
2013-09-09 01:52:00,66.0,61.0,29.66,North,9,0.0,-999.0,85,-99.99,,,0.01,weatherlink.com 1.10,2013-09-09 07:52:00,
2013-09-09 02:07:00,66.0,61.0,29.66,North,9,0.0,-999.0,85,-99.99,,,0.02,weatherlink.com 1.10,2013-09-09 08:07:00,
2013-09-09 02:22:00,65.8,61.0,29.67,North,9,0.0,-999.0,85,-99.99,,,0.02,weatherlink.com 1.10,2013-09-09 08:22:00,
2013-09-09 02:37:00,65.6,61.0,29.67,North,9,0.0,-999.0,85,-99.99,,,0.02,weatherlink.com 1.10,2013-09-09 08:37:00,
2013-09-09 02:52:00,65.5,61.0,29.66,North,9,0.0,-999.0,86,-99.99,,,0.02,weatherlink.com 1.10,2013-09-09 08:52:00,
2013-09-09 03:07:00,65.6,61.0,29.66,North,9,0.0,-999.0,86,-99.99,,,0.02,weatherlink.com 1.10,2013-09-09 09:07:00,
2013-09-09 03:22:00,65.6,61.0,29.66,North,9,0.0,-999.0,86,-99.99,,,0.02,weatherlink.com 1.10,2013-09-09 09:22:00,
2013-09-09 03:37:00,65.6,61.0,29.66,North,9,0.0,-999.0,86,-99.99,,,0.02,weatherlink.com 1.10,2013-09-09 09:37:00,
2013-09-09 03:52:00,65.8,62.0,29.65,North,9,0.0,-999.0,87,-99.99,,,0.02,weatherlink.com 1.10,2013-09-09 09:52:00,
2013-09-09 04:07:00,65.6,62.0,29.65,North,9,0.0,-999.0,87,-99.99,,,0.02,weatherlink.com 1.10,2013-09-09 10:07:00,
2013-09-09 04:22:00,65.5,61.0,29.66,North,9,0.0,-999.0,86,-99.99,,,0.02,weatherlink.com 1.10,2013-09-09 10:22:00,
2013-09-09 04:37:00,65.3,61.0,29.66,North,9,0.0,-999.0,86,-99.99,,,0.02,weatherlink.com 1.10,2013-09-09 10:37:00,
2013-09-09 04:52:00,65.6,62.0,29.66,North,9,0.0,-999.0,87,-99.99,,,0.02,weatherlink.com 1.10,2013-09-09 10:52:00,
2013-09-09 05:07:00,65.5,61.0,29.66,North,9,0.0,-999.0,86,-99.99,,,0.02,weatherlink.com 1.10,2013-09-09 11:07:00,
2013-09-09 05:22:00,65.3,61.0,29.67,North,9,0.0,-999.0,85,-99.99,,,0.02,weatherlink.com 1.10,2013-09-09 11:22:00,
2013-09-09 05:37:00,65.3,60.0,29.67,North,9,0.0,-999.0,84,-99.99,,,0.02,weatherlink.com 1.10,2013-09-09 11:37:00,
2013-09-09 05:52:00,64.3,59.0,29.68,North,9,0.0,-999.0,83,-99.99,,,0.02,weatherlink.com 1.10,2013-09-09 11:52:00,
2013-09-09 06:07:00,64.2,59.0,29.68,North,9,0.0,-999.0,83,-99.99,,,0.02,weatherlink.com 1.10,2013-09-09 12:07:00,
2013-09-09 06:22:00,64.0,59.0,29.68,North,9,0.0,-999.0,83,-99.99,,,0.02,weatherlink.com 1.10,2013-09-09 12:22:00,
2013-09-09 06:37:00,64.3,59.0,29.70,North,9,0.0,-999.0,83,-99.99,,,0.02,weatherlink.com 1.10,2013-09-09 12:37:00,
2013-09-09 06:52:00,64.3,59.0,29.70,North,9,1.0,-999.0,82,-99.99,,,0.03,weatherlink.com 1.10,2013-09-09 12:52:00,
2013-09-09 07:07:00,64.3,59.0,29.71,North,360,0.0,-999.0,84,-99.99,,,0.08,weatherlink.com 1.10,2013-09-09 13:07:00,
2013-09-09 07:22:00,64.0,59.0,29.73,North,360,0.0,-999.0,84,-99.99,,,0.17,weatherlink.com 1.10,2013-09-09 13:22:00,
2013-09-09 07:37:00,63.7,59.0,29.72,North,360,0.0,-999.0,85,-99.99,,,0.27,weatherlink.com 1.10,2013-09-09 13:37:00,
2013-09-09 07:52:00,63.1,59.0,29.72,North,360,0.0,-999.0,85,-99.99,,,0.33,weatherlink.com 1.10,2013-09-09 13:52:00,
2013-09-09 08:07:00,63.1,59.0,29.73,North,360,0.0,-999.0,86,-99.99,,,0.34,weatherlink.com 1.10,2013-09-09 14:07:00,
2013-09-09 08:22:00,63.2,59.0,29.74,North,360,0.0,-999.0,87,-99.99,,,0.34,weatherlink.com 1.10,2013-09-09 14:22:00,
2013-09-09 08:37:00,63.5,60.0,29.73,North,360,0.0,-999.0,87,-99.99,,,0.34,weatherlink.com 1.10,2013-09-09 14:37:00,
2013-09-09 08:52:00,63.5,60.0,29.72,North,360,0.0,-999.0,87,-99.99,,,0.35,weatherlink.com 1.10,2013-09-09 14:52:00,
2013-09-09 09:07:00,63.9,60.0,29.72,North,360,0.0,-999.0,87,-99.99,,,0.35,weatherlink.com 1.10,2013-09-09 15:07:00,
2013-09-09 09:22:00,64.0,60.0,29.73,North,360,0.0,-999.0,87,-99.99,,,0.35,weatherlink.com 1.10,2013-09-09 15:22:00,
2013-09-09 09:37:00,64.3,60.0,29.73,North,360,0.0,-999.0,87,-99.99,,,0.35,weatherlink.com 1.10,2013-09-09 15:37:00,
2013-09-09 09:52:00,64.3,60.0,29.74,North,360,0.0,-999.0,86,-99.99,,,0.35,weatherlink.com 1.10,2013-09-09 15:52:00,
2013-09-09 10:07:00,64.7,61.0,29.73,North,360,2.0,-999.0,86,-99.99,,,0.38,weatherlink.com 1.10,2013-09-09 16:07:00,
2013-09-09 10:22:00,64.3,60.0,29.75,North,360,0.0,-999.0,86,-99.99,,,0.40,weatherlink.com 1.10,2013-09-09 16:22:00,
2013-09-09 10:37:00,64.3,60.0,29.74,North,360,0.0,-999.0,85,-99.99,,,0.42,weatherlink.com 1.10,2013-09-09 16:37:00,
2013-09-09 10:52:00,64.3,60.0,29.74,North,360,0.0,-999.0,85,-99.99,,,0.42,weatherlink.com 1.10,2013-09-09 16:52:00,
2013-09-09 11:07:00,64.3,60.0,29.74,North,360,0.0,-999.0,85,-99.99,,,0.43,weatherlink.com 1.10,2013-09-09 17:07:00,
2013-09-09 11:22:00,64.5,60.0,29.74,North,360,0.0,-999.0,85,-99.99,,,0.47,weatherlink.com 1.10,2013-09-09 17:22:00,
2013-09-09 11:37:00,64.2,60.0,29.75,North,360,0.0,-999.0,85,-99.99,,,0.48,weatherlink.com 1.10,2013-09-09 17:37:00,
2013-09-09 11:53:00,64.0,59.0,29.75,North,360,0.0,-999.0,84,-99.99,,,0.48,weatherlink.com 1.10,2013-09-09 17:53:00,
2013-09-09 12:07:00,64.0,60.0,29.75,North,360,0.0,-999.0,85,-99.99,,,0.48,weatherlink.com 1.10,2013-09-09 18:07:00,
2013-09-09 12:22:00,64.3,60.0,29.74,North,360,0.0,-999.0,85,-99.99,,,0.50,weatherlink.com 1.10,2013-09-09 18:22:00,
2013-09-09 12:37:00,64.7,60.0,29.74,North,360,1.0,-999.0,85,-99.99,,,0.52,weatherlink.com 1.10,2013-09-09 18:37:00,
2013-09-09 12:52:00,65.2,61.0,29.74,North,360,0.0,-999.0,85,-99.99,,,0.52,weatherlink.com 1.10,2013-09-09 18:52:00,
2013-09-09 13:07:00,65.8,61.0,29.73,North,360,0.0,-999.0,84,-99.99,,,0.52,weatherlink.com 1.10,2013-09-09 19:07:00,
2013-09-09 13:22:00,66.3,61.0,29.72,North,360,0.0,-999.0,83,-99.99,,,0.52,weatherlink.com 1.10,2013-09-09 19:22:00,
2013-09-09 13:37:00,66.4,61.0,29.72,North,360,0.0,-999.0,83,-99.99,,,0.52,weatherlink.com 1.10,2013-09-09 19:37:00,
2013-09-09 13:52:00,66.8,61.0,29.71,North,360,0.0,-999.0,82,-99.99,,,0.52,weatherlink.com 1.10,2013-09-09 19:52:00,
2013-09-09 14:07:00,67.1,61.0,29.71,North,360,0.0,-999.0,81,-99.99,,,0.52,weatherlink.com 1.10,2013-09-09 20:07:00,
2013-09-09 14:22:00,67.4,61.0,29.72,North,360,0.0,-999.0,80,-99.99,,,0.52,weatherlink.com 1.10,2013-09-09 20:22:00,
2013-09-09 14:37:00,67.8,61.0,29.71,North,360,0.0,-999.0,78,-99.99,,,0.52,weatherlink.com 1.10,2013-09-09 20:37:00,
2013-09-09 14:52:00,67.8,61.0,29.70,North,360,0.0,-999.0,78,-99.99,,,0.52,weatherlink.com 1.10,2013-09-09 20:52:00,
2013-09-09 15:07:00,67.4,61.0,29.70,North,360,0.0,-999.0,79,-99.99,,,0.52,weatherlink.com 1.10,2013-09-09 21:07:00,
2013-09-09 15:22:00,67.3,61.0,29.71,North,360,0.0,-999.0,80,-99.99,,,0.52,weatherlink.com 1.10,2013-09-09 21:22:00,
2013-09-09 15:37:00,66.8,61.0,29.71,North,360,0.0,-999.0,81,-99.99,,,0.54,weatherlink.com 1.10,2013-09-09 21:37:00,
2013-09-09 15:52:00,66.0,60.0,29.71,ESE,111,0.0,-999.0,80,-99.99,,,0.54,weatherlink.com 1.10,2013-09-09 21:52:00,
2013-09-09 16:07:00,65.6,60.0,29.71,ESE,111,0.0,-999.0,81,-99.99,,,0.55,weatherlink.com 1.10,2013-09-09 22:07:00,
2013-09-09 16:22:00,65.3,60.0,29.71,ESE,111,0.0,-999.0,82,-99.99,,,0.55,weatherlink.com 1.10,2013-09-09 22:22:00,
2013-09-09 16:37:00,65.2,60.0,29.71,ESE,111,0.0,-999.0,82,-99.99,,,0.56,weatherlink.com 1.10,2013-09-09 22:37:00,
2013-09-09 16:52:00,64.8,60.0,29.71,ESE,111,0.0,-999.0,83,-99.99,,,0.56,weatherlink.com 1.10,2013-09-09 22:52:00,
2013-09-09 17:07:00,64.8,60.0,29.70,ESE,111,0.0,-999.0,83,-99.99,,,0.57,weatherlink.com 1.10,2013-09-09 23:07:00,
2013-09-09 17:22:00,64.5,60.0,29.71,ESE,111,0.0,-999.0,84,-99.99,,,0.57,weatherlink.com 1.10,2013-09-09 23:22:00,
2013-09-09 17:37:00,64.7,60.0,29.71,ESE,111,0.0,-999.0,84,-99.99,,,0.58,weatherlink.com 1.10,2013-09-09 23:37:00,
2013-09-09 17:52:00,64.7,60.0,29.71,ESE,111,0.0,-999.0,84,-99.99,,,0.59,weatherlink.com 1.10,2013-09-09 23:52:00,
2013-09-09 18:07:00,64.8,60.0,29.70,ESE,111,0.0,-999.0,84,-99.99,,,0.59,weatherlink.com 1.10,2013-09-10 00:07:00,
2013-09-09 18:22:00,64.8,60.0,29.69,ESE,111,0.0,-999.0,85,-99.99,,,0.60,weatherlink.com 1.10,2013-09-10 00:22:00,
2013-09-09 18:37:00,64.7,60.0,29.69,West,266,1.0,-999.0,85,-99.99,,,0.60,weatherlink.com 1.10,2013-09-10 00:37:00,
2013-09-09 18:52:00,64.2,60.0,29.69,West,260,0.0,-999.0,85,-99.99,,,0.61,weatherlink.com 1.10,2013-09-10 00:52:00,
2013-09-09 19:07:00,64.2,60.0,29.69,NNW,336,0.0,-999.0,86,-99.99,,,0.61,weatherlink.com 1.10,2013-09-10 01:07:00,
2013-09-09 19:22:00,64.0,60.0,29.70,NNW,336,0.0,-999.0,86,-99.99,,,0.61,weatherlink.com 1.10,2013-09-10 01:22:00,
2013-09-09 19:37:00,64.2,60.0,29.70,SW,216,0.0,-999.0,86,-99.99,,,0.61,weatherlink.com 1.10,2013-09-10 01:37:00,
2013-09-09 19:52:00,64.2,60.0,29.70,SW,216,0.0,-999.0,87,-99.99,,,0.61,weatherlink.com 1.10,2013-09-10 01:52:00,
2013-09-09 20:07:00,64.2,60.0,29.70,SW,216,0.0,-999.0,87,-99.99,,,0.62,weatherlink.com 1.10,2013-09-10 02:07:00,
2013-09-09 20:22:00,64.5,61.0,29.70,SW,216,0.0,-999.0,87,-99.99,,,0.62,weatherlink.com 1.10,2013-09-10 02:22:00,
2013-09-09 20:37:00,64.3,60.0,29.71,SW,216,0.0,-999.0,87,-99.99,,,0.62,weatherlink.com 1.10,2013-09-10 02:37:00,
2013-09-09 20:52:00,64.5,61.0,29.71,SW,216,0.0,-999.0,87,-99.99,,,0.62,weatherlink.com 1.10,2013-09-10 02:52:00,
2013-09-09 21:08:00,64.5,61.0,29.70,SW,216,2.0,-999.0,87,-99.99,,,0.62,weatherlink.com 1.10,2013-09-10 03:08:00,
2013-09-09 21:23:00,64.3,60.0,29.71,SSW,209,0.0,-999.0,87,-99.99,,,0.62,weatherlink.com 1.10,2013-09-10 03:23:00,
2013-09-09 21:38:00,64.5,61.0,29.73,WNW,296,1.0,-999.0,87,-99.99,,,0.62,weatherlink.com 1.10,2013-09-10 03:38:00,
2013-09-09 21:53:00,64.7,61.0,29.73,WNW,296,0.0,-999.0,86,-99.99,,,0.62,weatherlink.com 1.10,2013-09-10 03:53:00,
2013-09-09 22:08:00,64.7,61.0,29.73,WNW,296,1.0,-999.0,86,-99.99,,,0.62,weatherlink.com 1.10,2013-09-10 04:08:00,
2013-09-09 22:23:00,64.3,60.0,29.74,NNW,330,0.0,-999.0,85,-99.99,,,0.62,weatherlink.com 1.10,2013-09-10 04:23:00,
2013-09-09 22:38:00,64.2,59.0,29.75,NNW,330,0.0,-999.0,84,-99.99,,,0.63,weatherlink.com 1.10,2013-09-10 04:38:00,
2013-09-09 22:53:00,64.0,59.0,29.76,NNW,330,0.0,-999.0,84,-99.99,,,0.63,weatherlink.com 1.10,2013-09-10 04:53:00,
2013-09-09 23:08:00,64.0,60.0,29.76,NNW,330,0.0,-999.0,85,-99.99,,,0.63,weatherlink.com 1.10,2013-09-10 05:08:00,
2013-09-09 23:23:00,63.9,60.0,29.76,NNW,330,0.0,-999.0,86,-99.99,,,0.64,weatherlink.com 1.10,2013-09-10 05:23:00,
2013-09-09 23:38:00,63.7,60.0,29.75,NNW,330,0.0,-999.0,86,-99.99,,,0.65,weatherlink.com 1.10,2013-09-10 05:38:00,
2013-09-09 23:53:00,63.9,60.0,29.74,NNW,330,0.0,-999.0,86,-99.99,,,0.66,weatherlink.com 1.10,2013-09-10 05:53:00,